[[{"header":{"parameterUnit":"m.s-1","parameterCategory":1,"la1":30.2991,"la2":30.254,"lo1":-89.0895,"lo2":-89.0444,"dy":0.0017,"dx":0.0017,"nx":28,"ny":28,"refTime":"2025-05-20T03:00:00:Z","depth":0,"parameterNumber":2,"parameterNumberName":"U-component_of_WINDS"},"data":[0,0,0,0,0,0,0,0,0,0,0,0,0,0,0,0,0,0,0,0,0,0,0,0,0,0,0,0,0,0,0,0,0,0,0,0,0,0,0,0,0,0,0,0,0,0,0,0,0,0,0,0,0,0,0,0,0,0,3.9155,3.9157,0,3.934,3.9342,3.9344,3.9324,3.9321,3.9319,3.9316,3.9509,3.9517,3.9525,0,0,0,0,0,0,0,0,0,0,0,0,0,3.8789,3.8796,3.9155,3.9157,3.9159,3.9339,3.9342,3.9344,3.9325,3.9321,3.9318,3.9314,3.9507,3.9516,3.9525,0,0,0,0,0,0,0,0,0,0,0,0,0,3.8958,3.8798,3.9154,3.9171,3.9175,3.9339,3.9342,3.9345,3.9326,3.9321,3.9317,3.9313,3.9504,3.9515,3.9527,3.9687,0,0,3.9563,3.9568,0,0,0,0,0,0,0,0,3.8949,3.8972,3.9167,3.917,3.9174,3.9304,3.9284,3.946,3.9327,3.9268,3.9316,3.9311,3.9445,3.9461,3.9506,3.9696,3.9705,3.9564,3.9571,3.9576,3.9579,0,0,0,0,0,0,0,3.8937,3.8964,3.9228,3.9169,3.9174,3.9171,3.919,3.9317,3.9379,3.9273,3.9272,3.9294,3.9446,3.9494,3.951,3.9707,3.9564,3.9574,3.9581,3.9586,4.0039,4.0043,0,0,0,0,0,0,3.8921,3.8954,3.9222,3.9234,3.9048,3.9181,3.9202,3.9267,3.9378,3.939,3.9298,3.9292,3.9476,3.9496,3.9517,3.9711,3.9576,3.9587,3.9594,4.0034,4.004,4.0045,0,0,0,0,0,0,3.8913,3.8945,3.9215,3.9094,3.9128,3.9192,3.9265,3.9273,3.9321,3.9396,3.9407,3.9335,3.9474,3.95,3.9645,3.9718,3.9592,3.9603,4.0028,4.0036,4.0042,4.0102,0,0,0,0,0,0,3.8902,3.8942,3.9003,3.9095,3.9134,3.9338,3.9269,3.928,3.9341,3.9336,3.9434,3.9446,3.9472,3.9627,3.9656,3.9732,3.9612,4.0022,4.0031,4.004,4.0094,4.0111,4.0125,0,0,0,0,0,3.8889,3.9014,3.9006,3.9039,3.9211,3.9343,3.9365,3.9391,3.9347,3.9409,3.9457,3.9443,3.9705,3.9642,3.9675,3.9755,4.0017,4.0029,4.0039,4.0087,4.0107,4.0125,0,0,0,0,0,0,3.893,3.9026,3.9019,3.9176,3.9251,3.9339,3.9418,3.9412,3.9503,3.9494,3.9524,3.9547,3.9692,3.9738,3.9666,3.9916,3.9855,3.9874,3.988,3.99,3.9916,3.9901,3.9622,0,0,0,0,0,3.8957,3.9054,3.9133,3.9265,3.9302,3.9354,3.9412,3.9425,3.9505,3.9537,3.9596,3.9675,3.9775,3.984,3.9937,4.0101,4.0122,4.0172,4.0188,4.02,4.0215,4.0305,4.0328,4.0082,4.0082,4.0081,0,0,3.9014,3.9078,3.9138,3.9274,3.9334,3.9435,3.9381,3.949,3.9566,3.9554,3.9693,3.974,3.983,3.9984,4.0056,4.0027,4.0288,4.0214,4.0223,4.0232,4.0319,4.0342,4.0363,4.0089,4.0088,4.0087,0,0,3.917,3.9228,3.9343,3.9404,3.9495,3.9528,3.9556,3.9645,3.9674,3.9814,3.9807,3.9898,4.007,4.0134,4.019,4.0369,4.0359,4.04,4.0481,4.0568,4.0587,4.0605,4.0668,4.0691,4.0415,4.0415,4.0415,0,3.923,3.938,3.9404,3.9514,3.9574,3.9567,3.9684,3.9742,3.986,3.9903,3.9869,4.0084,4.0144,4.0313,4.0357,4.0402,4.0435,4.0388,4.0582,4.06,4.0617,4.0678,4.0702,4.0419,4.0419,4.0418,4.0418,0,3.9449,3.9554,3.9637,3.9749,3.9818,3.9932,3.9973,4.0041,4.0048,4.0085,4.0228,4.03,4.041,4.0452,4.0461,4.0623,4.0602,4.0575,4.0515,4.0644,4.0702,4.0725,4.0425,4.0424,4.0422,4.0421,0,0,3.9636,3.9759,3.9789,3.9839,3.9938,4.002,4.0134,4.024,4.0297,4.0379,4.0475,4.062,4.0595,4.0658,4.0675,4.0751,4.0888,4.0715,4.0718,4.0744,4.107,4.1089,4.1116,4.0882,4.0887,4.089,4.1062,0,3.9801,4.0,4.0024,4.0201,4.0298,4.0292,4.0391,4.0463,4.0501,4.0589,4.0632,4.0734,4.0694,4.0731,4.0807,4.0855,4.0954,4.0843,4.0972,4.0977,4.0949,4.1146,4.1167,4.1326,4.1085,4.1089,4.1092,0,4.002,4.0106,4.0292,4.0377,4.0419,4.0507,4.0606,4.069,4.0772,4.0794,4.0864,4.087,4.0988,4.0923,4.1086,4.101,4.1065,4.1096,4.1103,4.1116,4.1042,4.1164,4.1377,4.1401,4.1128,4.1125,4.1122,0,4.0137,4.0299,4.0431,4.0475,4.0578,4.0639,4.0685,4.0763,4.0825,4.0912,4.0952,4.1053,4.1108,4.1186,4.122,4.1169,4.1381,4.1319,4.1403,4.1402,4.1448,4.1444,4.1672,4.1484,4.1483,4.1483,4.1482,0,4.0319,4.0433,4.0485,4.0566,4.0694,4.0721,4.0847,4.0891,4.096,4.105,4.1052,4.1137,4.1176,4.1268,4.1295,4.1426,4.1451,4.1473,4.1478,4.1472,4.1469,4.1508,4.1498,4.1489,4.1488,4.1487,4.1485,0,4.0471,4.051,4.0654,4.0738,4.0762,4.0853,4.0926,4.1005,4.1041,4.1156,4.1184,4.1242,4.135,4.1391,4.1523,4.1541,4.1692,4.1689,4.1664,4.1665,4.1747,4.1738,4.2008,4.2044,4.1832,4.1834,4.1835,0,4.0584,4.0671,4.0765,4.0824,4.0872,4.0968,4.1031,4.1062,4.1127,4.1226,4.1294,4.14,4.1487,4.166,4.1714,4.1815,4.1815,4.1902,4.183,4.1821,4.1816,4.181,4.1818,4.1915,4.1917,4.1919,4.1921,0,4.078,4.0795,4.0885,4.0981,4.1056,4.1134,4.121,4.1259,4.1301,4.1375,4.1484,4.1551,4.1685,4.1791,4.1894,4.1943,4.194,4.1943,4.1968,4.1962,4.1943,4.1954,4.1699,4.1936,4.1935,4.1934,4.1933,4.1932,4.0916,4.0993,4.107,4.117,4.123,4.1301,4.1379,4.1424,4.1515,4.1625,4.1638,4.1755,4.1834,4.1972,4.2025,4.2118,4.2095,4.2131,4.214,4.2149,4.2154,4.1928,4.2137,4.2137,4.2137,4.2136,4.2136,0,4.1112,4.1161,4.1252,4.1357,4.1436,4.1424,4.1507,4.1574,4.1676,4.175,4.1835,4.196,4.2063,4.2125,4.2228,4.2291,4.2292,4.2317,4.2312,4.2324,4.2169,4.2137,4.2314,4.2314,4.2314,4.2314,4.2314,4.2314,4.1223,4.1352,4.1376,4.1535,4.1584,4.1697,4.1746,4.1811,4.187,4.2009,4.2093,4.2133,4.2202,4.231,4.2404,4.242,4.2458,4.2485,4.2499,4.2353,4.2335,4.2317,4.2287,4.2493,4.2493,4.2646,4.2647,4.2648]},{"header":{"parameterUnit":"m.s-1","parameterCategory":1,"la1":30.2991,"la2":30.254,"lo1":-89.0895,"lo2":-89.0444,"dy":0.0017,"dx":0.0017,"nx":28,"ny":28,"refTime":"2025-05-20T03:00:00:Z","depth":0,"parameterNumber":3,"parameterNumberName":"V-component_of_WINDS"},"data":[0,0,0,0,0,0,0,0,0,0,0,0,0,0,0,0,0,0,0,0,0,0,0,0,0,0,0,0,0,0,0,0,0,0,0,0,0,0,0,0,0,0,0,0,0,0,0,0,0,0,0,0,0,0,0,0,0,0,1.2767,1.2767,0,1.2793,1.2793,1.2793,1.2763,1.2762,1.2761,1.276,1.2788,1.279,1.2792,0,0,0,0,0,0,0,0,0,0,0,0,0,1.2691,1.2693,1.2767,1.2767,1.2768,1.2793,1.2793,1.2794,1.2763,1.2762,1.2761,1.2759,1.2788,1.279,1.2792,0,0,0,0,0,0,0,0,0,0,0,0,0,1.2722,1.2694,1.2767,1.2755,1.2755,1.2793,1.2793,1.2794,1.2764,1.2762,1.276,1.2759,1.2787,1.2789,1.2792,1.2843,0,0,1.28,1.2802,0,0,0,0,0,0,0,0,1.272,1.2724,1.2757,1.2756,1.2756,1.2773,1.2777,1.281,1.2764,1.276,1.276,1.2758,1.2785,1.2787,1.2796,1.2844,1.2846,1.2801,1.2802,1.2804,1.2804,0,0,0,0,0,0,0,1.2718,1.2723,1.2777,1.2757,1.2757,1.2749,1.2752,1.2783,1.2782,1.2761,1.2758,1.2762,1.2784,1.2794,1.2797,1.2846,1.2801,1.2803,1.2805,1.2806,1.2936,1.2938,0,0,0,0,0,0,1.2717,1.2722,1.2776,1.2778,1.2733,1.2752,1.2755,1.2769,1.2781,1.2782,1.2763,1.276,1.279,1.2793,1.2797,1.2857,1.2804,1.2806,1.2808,1.2935,1.2937,1.2939,0,0,0,0,0,0,1.2715,1.2722,1.2775,1.2749,1.2755,1.2755,1.2772,1.2771,1.278,1.2783,1.2783,1.2773,1.2789,1.2794,1.2832,1.2858,1.2807,1.281,1.2932,1.2935,1.2938,1.2978,0,0,0,0,0,0,1.2713,1.2722,1.2741,1.275,1.2757,1.2809,1.2773,1.2772,1.2785,1.2781,1.2793,1.2793,1.2788,1.2828,1.2834,1.2861,1.2812,1.293,1.2934,1.2937,1.2975,1.2982,1.2988,0,0,0,0,0,1.2711,1.2752,1.2742,1.2749,1.2781,1.2811,1.2815,1.2807,1.2787,1.2806,1.2808,1.2793,1.2854,1.2832,1.2839,1.2867,1.2928,1.2933,1.2937,1.2971,1.2981,1.2988,0,0,0,0,0,0,1.2748,1.2753,1.2742,1.2788,1.2799,1.2806,1.283,1.2817,1.2835,1.2831,1.2821,1.2824,1.2864,1.2869,1.2845,1.2916,1.2888,1.2893,1.2912,1.292,1.2927,1.2926,1.2814,0,0,0,0,0,1.2761,1.2784,1.2788,1.2828,1.2834,1.2831,1.2844,1.2836,1.2848,1.2853,1.2857,1.2869,1.2891,1.2906,1.2926,1.2975,1.2976,1.2997,1.3004,1.301,1.3015,1.304,1.3049,1.2952,1.2952,1.2952,0,0,1.2789,1.2795,1.2811,1.2835,1.2843,1.2867,1.2835,1.2863,1.2881,1.2857,1.2893,1.2897,1.2909,1.2953,1.2972,1.2958,1.3042,1.3015,1.3019,1.3022,1.3045,1.3055,1.3063,1.2955,1.2955,1.2954,0,0,1.2853,1.286,1.2893,1.2901,1.2913,1.291,1.2918,1.2927,1.2928,1.2964,1.2946,1.2967,1.3005,1.3014,1.3024,1.3089,1.3076,1.3096,1.3133,1.3158,1.3165,1.3172,1.3195,1.3204,1.3101,1.3101,1.3101,0,1.2887,1.2923,1.2912,1.294,1.2952,1.293,1.2963,1.2972,1.299,1.2998,1.2982,1.3028,1.3035,1.308,1.3095,1.3104,1.3113,1.3095,1.3165,1.3171,1.3178,1.32,1.3208,1.3104,1.3104,1.3103,1.3103,0,1.2963,1.2988,1.3014,1.3031,1.3045,1.3076,1.307,1.3085,1.3076,1.3075,1.3111,1.3119,1.314,1.3149,1.3142,1.3193,1.3184,1.3166,1.3138,1.3189,1.321,1.3218,1.3107,1.3106,1.3106,1.3105,0,0,1.3053,1.3062,1.3072,1.3079,1.3089,1.3108,1.3138,1.3157,1.3171,1.3183,1.3208,1.3239,1.3222,1.3234,1.3226,1.3248,1.3299,1.3228,1.3228,1.3241,1.3355,1.3369,1.3379,1.3289,1.329,1.3292,1.3354,0,1.3117,1.3168,1.3158,1.3208,1.323,1.3209,1.3234,1.3243,1.3243,1.3262,1.3262,1.3284,1.3261,1.3267,1.3287,1.3288,1.3321,1.3283,1.3312,1.3313,1.331,1.3389,1.3404,1.3463,1.3362,1.3363,1.3364,0,1.3199,1.3213,1.3265,1.327,1.3279,1.3303,1.3319,1.3338,1.3347,1.3345,1.3356,1.3345,1.3374,1.3344,1.3383,1.3358,1.3368,1.337,1.3372,1.3376,1.3343,1.3395,1.3481,1.349,1.3377,1.3376,1.3375,0,1.3259,1.3292,1.3326,1.3333,1.334,1.3357,1.3361,1.3368,1.338,1.3395,1.3402,1.342,1.343,1.3444,1.3437,1.3416,1.3478,1.3447,1.3477,1.3478,1.3492,1.3492,1.3582,1.3498,1.3498,1.3498,1.3498,0,1.3332,1.3365,1.3353,1.3375,1.341,1.3398,1.3434,1.3435,1.3442,1.3463,1.3445,1.3466,1.3455,1.3475,1.3469,1.3503,1.3508,1.3507,1.3505,1.3509,1.3509,1.3517,1.3513,1.35,1.35,1.3499,1.3499,0,1.3406,1.34,1.3437,1.344,1.3441,1.3467,1.347,1.349,1.3487,1.3514,1.352,1.3516,1.3538,1.3532,1.3556,1.3552,1.3595,1.3588,1.3591,1.359,1.362,1.3618,1.3719,1.3732,1.364,1.364,1.3641,0,1.3454,1.3478,1.3483,1.3496,1.3501,1.3521,1.3533,1.3521,1.3534,1.3546,1.3564,1.3584,1.36,1.3636,1.3635,1.3653,1.3647,1.3681,1.365,1.3652,1.3648,1.3647,1.3649,1.3688,1.3689,1.369,1.3691,0,1.3538,1.3534,1.3551,1.3566,1.358,1.3593,1.3603,1.3614,1.3604,1.3619,1.364,1.3652,1.3676,1.3696,1.3712,1.3716,1.3702,1.37,1.3708,1.3713,1.3714,1.3714,1.3609,1.3698,1.3697,1.3697,1.3697,1.3696,1.3601,1.3621,1.3627,1.3647,1.3653,1.3663,1.3681,1.368,1.3698,1.3716,1.3708,1.3732,1.374,1.376,1.3766,1.3785,1.3772,1.3784,1.3787,1.379,1.3794,1.371,1.3788,1.3788,1.3787,1.3787,1.3787,0,1.3685,1.3687,1.3705,1.3719,1.3734,1.3718,1.3728,1.3742,1.3764,1.3772,1.3787,1.3811,1.383,1.383,1.3848,1.3863,1.3857,1.3868,1.3867,1.3868,1.3804,1.3796,1.3873,1.3873,1.3873,1.3873,1.3873,1.3873,1.373,1.3763,1.3759,1.3794,1.3796,1.382,1.3827,1.3836,1.3842,1.387,1.3885,1.3884,1.3889,1.3907,1.3923,1.3923,1.393,1.3944,1.3941,1.3882,1.3873,1.3865,1.3857,1.3946,1.3946,1.4004,1.4004,1.4005]}]]